| time (UTC) | temp F | wind direction | speed MPH | gust MPH | rain 1hr in | rain 24hr in | rain mn in | humidity % | barometer mb |
| 20260504201842 | 46 | 323 | 1.0 | 7.0 | 0.00 | 0.00 | 0.00 | 50 | 1012.9 |
| 20260504200356 | 47 | 261 | 1.0 | 7.0 | 0.00 | 0.00 | 0.00 | 51 | 1013.0 |
| 20260504194847 | 47 | 15 | 0.0 | 8.0 | 0.00 | 0.00 | 0.00 | 51 | 1013.0 |
| 20260504193334 | 47 | 24 | 1.0 | 8.0 | 0.00 | 0.00 | 0.00 | 50 | 1013.0 |
| 20260504191837 | 47 | 13 | 1.0 | 6.0 | 0.00 | 0.00 | 0.00 | 50 | 1012.9 |
| 20260504190351 | 48 | 9 | 1.0 | 7.0 | 0.00 | 0.00 | 0.00 | 51 | 1013.0 |
| 20260504184847 | 48 | 332 | 2.0 | 11.0 | 0.00 | 0.00 | 0.00 | 54 | 1013.0 |
| 20260504183338 | 48 | 311 | 4.0 | 7.0 | 0.00 | 0.00 | 0.00 | 53 | 1013.0 |
| 20260504181826 | 47 | 25 | 2.0 | 9.0 | 0.00 | 0.00 | 0.00 | 55 | 1013.3 |
| 20260504180341 | 47 | 14 | 1.0 | 6.0 | 0.00 | 0.00 | 0.00 | 55 | 1013.4 |
| 20260504174839 | 46 | 348 | 1.0 | 8.0 | 0.00 | 0.00 | 0.00 | 56 | 1013.5 |
| 20260504173336 | 46 | 272 | 2.0 | 7.0 | 0.00 | 0.00 | 0.00 | 56 | 1013.6 |
| 20260504171839 | 45 | 302 | 2.0 | 8.0 | 0.00 | 0.00 | 0.00 | 56 | 1013.7 |
| 20260504170332 | 45 | 270 | 2.0 | 7.0 | 0.00 | 0.00 | 0.00 | 58 | 1013.7 |
| 20260504160354 | 44 | 5 | 1.0 | 6.0 | 0.00 | 0.00 | 0.00 | 60 | 1014.0 |
| 20260504150348 | 43 | 5 | 0.0 | 7.0 | 0.00 | 0.00 | 0.00 | 64 | 1014.2 |
| 20260504140335 | 43 | 321 | 0.0 | 2.0 | 0.00 | 0.00 | 0.00 | 63 | 1014.2 |
| 20260504130336 | 43 | 5 | 0.0 | 2.0 | 0.00 | 0.00 | 0.00 | 61 | 1013.7 |
| 20260504110339 | 39 | 306 | 0.0 | 2.0 | 0.00 | 0.00 | 0.00 | 71 | 1010.7 |
| 20260504100348 | 39 | 63 | 0.0 | 0.0 | 0.00 | 0.00 | 0.00 | 72 | 1008.1 |
| 20260504081829 | 43 | 148 | 0.0 | 0.0 | 0.00 | 0.00 | 0.00 | 68 | 1007.2 |
| 20260504080413 | 44 | 141 | 0.0 | 0.0 | 0.00 | 0.00 | 0.00 | 68 | 1007.3 |
| 20260504070402 | 45 | 300 | 0.0 | 0.0 | 0.00 | 0.00 | 0.00 | 62 | 1007.4 |
| 20260504050348 | 46 | 346 | 0.0 | 0.0 | 0.00 | 0.00 | 0.00 | 66 | 1007.1 |
| 20260504044844 | 48 | 319 | 0.0 | 0.0 | 0.00 | 0.00 | 0.00 | 63 | 1006.9 |
| 20260504043333 | 49 | 198 | 0.0 | 0.0 | 0.00 | 0.00 | 0.00 | 62 | 1007.0 |
| 20260504041852 | 50 | 198 | 0.0 | 0.0 | 0.00 | 0.00 | 0.00 | 60 | 1007.1 |
| 20260504040327 | 50 | 198 | 0.0 | 0.0 | 0.00 | 0.00 | 0.00 | 60 | 1007.1 |
| 20260504034825 | 51 | 219 | 0.0 | 0.0 | 0.00 | 0.00 | 0.00 | 59 | 1007.1 |
| 20260504033345 | 52 | 203 | 0.0 | 0.0 | 0.00 | 0.00 | 0.00 | 56 | 1007.1 |
| 20260504031838 | 54 | 173 | 0.0 | 2.0 | 0.00 | 0.00 | 0.00 | 53 | 1007.1 |
| 20260504030329 | 55 | 221 | 0.0 | 2.0 | 0.00 | 0.00 | 0.00 | 52 | 1007.1 |
| 20260504024852 | 55 | 217 | 0.0 | 2.0 | 0.00 | 0.00 | 0.00 | 52 | 1007.1 |
| 20260504023349 | 56 | 229 | 0.0 | 2.0 | 0.00 | 0.00 | 0.00 | 50 | 1007.0 |
| 20260504021900 | 59 | 215 | 0.0 | 2.0 | 0.00 | 0.00 | 0.00 | 47 | 1007.0 |
| 20260504020332 | 61 | 227 | 0.0 | 0.0 | 0.00 | 0.00 | 0.00 | 42 | 1007.1 |
| 20260504014841 | 63 | 227 | 0.0 | 0.0 | 0.00 | 0.00 | 0.00 | 41 | 1007.1 |
| 20260504013336 | 64 | 301 | 0.0 | 2.0 | 0.00 | 0.00 | 0.00 | 39 | 1007.1 |
| 20260504011825 | 65 | 326 | 0.0 | 2.0 | 0.00 | 0.00 | 0.00 | 36 | 1007.3 |
| 20260504010329 | 65 | 31 | 0.0 | 2.0 | 0.00 | 0.00 | 0.00 | 34 | 1007.6 |
| 20260504004858 | 65 | 360 | 1.0 | 5.0 | 0.00 | 0.00 | 0.00 | 35 | 1007.7 |
| 20260504003326 | 66 | 19 | 0.0 | 3.0 | 0.00 | 0.00 | 0.00 | 33 | 1007.7 |
| 20260504001826 | 68 | 355 | 3.0 | 6.0 | 0.00 | 0.00 | 0.00 | 31 | 1007.9 |
| 20260504000412 | 70 | 323 | 0.0 | 2.0 | 0.00 | 0.00 | 0.00 | 30 | 1008.2 |
| 20260503234849 | 70 | 5 | 0.0 | 2.0 | 0.00 | 0.00 | 0.00 | 30 | 1008.3 |
| 20260503233352 | 70 | 22 | 0.0 | 2.0 | 0.00 | 0.00 | 0.00 | 29 | 1008.3 |
| 20260503231838 | 70 | 12 | 0.0 | 3.0 | 0.00 | 0.00 | 0.00 | 31 | 1008.4 |
| 20260503230334 | 69 | 332 | 1.0 | 10.0 | 0.00 | 0.00 | 0.00 | 32 | 1008.5 |
| 20260503224831 | 69 | 20 | 0.0 | 5.0 | 0.00 | 0.00 | 0.00 | 33 | 1008.6 |
| 20260503223345 | 69 | 263 | 1.0 | 5.0 | 0.00 | 0.00 | 0.00 | 33 | 1008.9 |
| 20260503221842 | 69 | 334 | 1.0 | 6.0 | 0.00 | 0.00 | 0.00 | 36 | 1009.0 |
| 20260503220403 | 68 | 350 | 0.0 | 9.0 | 0.00 | 0.00 | 0.00 | 36 | 1009.4 |
| 20260503214848 | 68 | 29 | 2.0 | 6.0 | 0.00 | 0.00 | 0.00 | 36 | 1009.5 |
| 20260503213357 | 69 | 342 | 1.0 | 5.0 | 0.00 | 0.00 | 0.00 | 37 | 1009.9 |
| 20260503211822 | 69 | 278 | 1.0 | 8.0 | 0.00 | 0.00 | 0.00 | 36 | 1010.1 |
| 20260503210329 | 68 | 333 | 2.0 | 9.0 | 0.00 | 0.00 | 0.00 | 37 | 1010.5 |
| 20260503204835 | 68 | 348 | 2.0 | 7.0 | 0.00 | 0.00 | 0.00 | 37 | 1010.7 |
| 20260503203356 | 68 | 84 | 1.0 | 6.0 | 0.00 | 0.00 | 0.00 | 38 | 1010.9 |